This is the latest recevied weather packets stored in our database for station/object F4GQK-13. If no packets are shown the sender has not sent any weather packets the latest 10 day(s).
| Time | Temp. | Humidity | Pressure | Rain* | Wind** | Luminosity | Snow |
|---|---|---|---|---|---|---|---|
| 1777803604 | 14.44° C | 93% | 1013.8 hPa | 0 mm | - | 208 W/m² | - |
| 1777803304 | 14.44° C | 93% | 1013.9 hPa | 0 mm | - | 57 W/m² | - |
| 1777803005 | 14.44° C | 94% | 1013.8 hPa | 0 mm | - | 60 W/m² | - |
| 1777802705 | 14.44° C | 94% | 1013.8 hPa | 0 mm | - | 123 W/m² | - |
| 1777802406 | 14.44° C | 94% | 1013.8 hPa | 0 mm | - | 94 W/m² | - |
| 1777802105 | 14.44° C | 94% | 1013.7 hPa | 0 mm | - | 105 W/m² | - |
| 1777801805 | 14.44° C | 94% | 1013.9 hPa | 0 mm | - | 81 W/m² | - |
| 1777801504 | 14.44° C | 95% | 1013.7 hPa | 0 mm | - | 75 W/m² | - |
| 1777801205 | 14.44° C | 95% | 1013.7 hPa | 0 mm | - | 79 W/m² | - |
| 1777800905 | 14.44° C | 95% | 1013.8 hPa | 0 mm | - | 95 W/m² | - |
| 1777800604 | 14.44° C | 96% | 1013.9 hPa | 0 mm | - | 164 W/m² | - |
| 1777800305 | 14.44° C | 96% | 1013.8 hPa | 0.25 mm | - | 228 W/m² | - |
| 1777800005 | 14.44° C | 96% | 1013.9 hPa | 0.25 mm | - | 124 W/m² | - |
| 1777799705 | 14.44° C | 96% | 1013.8 hPa | 0.25 mm | - | 75 W/m² | - |
| 1777799405 | 14.44° C | 96% | 1013.8 hPa | 0.25 mm | - | 82 W/m² | - |
| 1777799105 | 14.44° C | 96% | 1014 hPa | 0.25 mm | - | 100 W/m² | - |
| 1777798805 | 13.89° C | 96% | 1013.9 hPa | 0.25 mm | - | 59 W/m² | - |
| 1777798504 | 14.44° C | 97% | 1013.9 hPa | 0.25 mm | - | 74 W/m² | - |
| 1777798205 | 14.44° C | 97% | 1013.9 hPa | 0.25 mm | - | 80 W/m² | - |
| 1777797905 | 14.44° C | 97% | 1013.9 hPa | 0.51 mm | - | 108 W/m² | - |
| 1777797605 | 14.44° C | 97% | 1013.9 hPa | 0.51 mm | - | 194 W/m² | - |
| 1777797305 | 14.44° C | 97% | 1013.8 hPa | 0.76 mm | - | 258 W/m² | - |
| 1777797005 | 14.44° C | 97% | 1014 hPa | 0.76 mm | - | 194 W/m² | - |
| 1777796705 | 13.89° C | 97% | 1013.9 hPa | 0.51 mm | - | 79 W/m² | - |
| 1777796405 | 13.89° C | 97% | 1013.9 hPa | 0.51 mm | - | 71 W/m² | - |
* Rain latest hour (hover to see other rain measurements)
** Current wind speed in m/s (hover to see current wind gust speed)